Location: Unspecified
(0.0000°N, 0.0000°E)
Time: 14:01:25
(UTC+00:00)

Courier 1B - Visible Passes

Search period start: 02 February 2023 00:00
Search period end: 12 February 2023 00:00
Orbit: 962 x 1209 km, 28.3° (Epoch: 01 February)

Date Brightness Start Highest point End Pass type
(mag) Time Alt. Az. Time Alt. Az. Time Alt. Az.
02 Feb 7.5 20:06:47 10° NW 20:13:30 70° NNE 20:13:32 70° NNE visible
03 Feb 10.1 05:47:23 10° SSW 05:52:53 20° SSE 05:58:12 10° ESE visible
03 Feb 7.8 19:13:18 10° NW 19:19:40 49° NNE 19:24:00 22° E visible
03 Feb 9.1 21:07:17 10° WNW 21:10:58 31° W 21:10:58 31° W visible
04 Feb 10.2 04:54:10 10° SSW 04:58:34 16° SSE 05:02:54 10° SE visible
04 Feb 7.8 20:13:17 10° WNW 20:19:56 66° SSW 20:21:29 52° SSE visible
05 Feb 10.3 04:01:23 10° S 04:04:10 12° SSE 04:06:56 10° SE visible
05 Feb 7.5 19:19:30 10° WNW 19:26:06 90° N 19:32:01 15° ESE visible
05 Feb 9.4 21:14:51 10° W 21:18:59 25° SW 21:18:59 25° SW visible
06 Feb 9.8 04:59:07 10° SSW 05:05:26 26° SSE 05:11:37 10° E visible
06 Feb 7.6 18:25:52 10° NW 18:32:19 65° NNE 18:39:03 10° ESE visible
06 Feb 8.8 20:20:26 10° W 20:26:29 36° SSW 20:29:30 25° SSE visible
07 Feb 10.0 04:05:47 10° SSW 04:11:11 20° SSE 04:16:34 10° ESE visible
07 Feb 8.4 19:26:17 10° WNW 19:32:35 49° SSW 19:39:14 10° SE visible
07 Feb 9.9 21:23:30 10° SW 21:26:52 15° SSW 21:26:52 15° SSW visible
08 Feb 10.1 03:14:01 12° S 03:16:53 15° SSE 03:21:02 10° SE visible
08 Feb 9.0 05:04:37 10° SW 05:12:01 44° SSE 05:19:16 10° E visible
08 Feb 7.9 18:32:19 10° WNW 18:38:46 69° SSW 18:45:30 10° SE visible
08 Feb 9.6 20:28:27 10° WSW 20:33:12 20° SSW 20:37:12 13° SSE visible
09 Feb 10.5 02:24:27 10° SE 02:24:27 10° SE 02:24:37 10° SE visible
09 Feb 9.3 04:11:25 11° SSW 04:17:54 33° SSE 04:24:44 10° E visible
09 Feb 9.3 19:33:47 10° W 19:39:12 27° SSW 19:44:50 10° SSE visible
10 Feb 9.6 03:21:57 23° S 03:23:43 25° SSE 03:29:52 10° ESE visible
10 Feb 8.1 05:10:34 10° SW 05:18:27 75° SSE 05:26:11 10° ENE visible
10 Feb 8.9 18:39:24 10° W 18:45:18 37° SSW 18:51:24 10° SE visible
10 Feb 10.1 20:38:12 10° SW 20:40:11 11° SSW 20:42:12 10° S visible
11 Feb 10.2 02:32:32 15° SE 02:32:32 15° SE 02:34:36 10° ESE visible
11 Feb 8.5 04:19:30 24° SW 04:24:23 55° SSE 04:32:01 10° ENE visible
11 Feb 9.9 19:42:25 10° WSW 19:46:02 15° SSW 19:49:43 10° S visible
